Location: Brede
(50.9167°N, 0.6000°E)
Time: 23:09:30
(UTC+00:00)

Transit 4A - Visible Passes

Search period start: 05 December 2020 00:00
Search period end: 15 December 2020 00:00
Orbit: 862 x 982 km, 66.8° (Epoch: 05 December)

Date Brightness Start Highest point End Pass type
(mag) Time Alt. Az. Time Alt. Az. Time Alt. Az.
05 Dec 10.5 05:18:04 10° SSE 05:22:42 22° ESE 05:27:23 10° ENE visible
05 Dec 8.1 07:01:55 10° SW 07:08:18 90° SW 07:14:48 10° NE visible
06 Dec 9.9 05:26:20 10° SSE 05:31:45 30° ESE 05:37:12 10° NE visible
07 Dec 9.3 05:34:57 10° S 05:40:50 41° ESE 05:46:49 10° NE visible
08 Dec 10.9 04:03:01 10° ESE 04:04:59 11° E 04:06:58 10° E visible
08 Dec 8.7 05:43:50 10° SSW 05:50:02 57° ESE 05:56:19 10° NE visible
08 Dec 11.3 16:31:53 10° W 16:33:16 11° W 16:34:38 10° WSW visible
09 Dec 10.5 04:09:58 10° SE 04:13:54 17° ESE 04:17:51 10° ENE visible
09 Dec 8.2 05:52:56 10° SSW 05:59:18 76° ESE 06:05:44 10° NE visible
10 Dec 10.0 04:17:56 10° SSE 04:22:53 24° ESE 04:27:53 10° NE visible
10 Dec 8.0 06:02:12 10° SW 06:08:38 82° NW 06:15:06 10° NE visible
11 Dec 9.5 04:26:20 10° S 04:31:57 34° ESE 04:37:37 10° NE visible
11 Dec 8.0 06:11:41 10° SW 06:18:02 64° NW 06:24:27 10° NE visible
12 Dec 8.9 04:35:03 10° S 04:41:05 46° ESE 04:47:11 10° NE visible
12 Dec 8.2 06:21:19 10° WSW 06:27:31 50° NW 06:33:46 10° NNE visible
13 Dec 10.6 03:02:36 11° SE 03:05:07 13° E 03:08:02 10° ENE visible
13 Dec 8.3 04:46:15 23° SSW 04:50:17 63° ESE 04:56:39 10° NE visible
13 Dec 8.5 06:31:05 10° WSW 06:37:05 40° NW 06:43:06 10° NNE visible
14 Dec 10.1 03:13:16 19° ESE 03:14:03 20° ESE 03:18:28 10° ENE visible
14 Dec 8.0 04:56:53 38° SSW 04:59:35 84° SE 05:06:03 10° NE visible
14 Dec 8.7 06:40:58 10° W 06:46:42 33° NNW 06:52:26 10° NNE visible
